USA 40 R/B DEB, 23373

Orbit data source: Space-Track

USA 40 R/B DEB, 23373 is space debris originally from a launch on Tue, 08 Aug 1989 UTC launched from the Air Force Eastern Test Range (AFETR). Debris objects in space refer to the collection of defunct objects orbiting the Earth. Examples of debris include non-operational satellites, rocket bodies, and fragments generated from explosions, collisions, or faulty payload assembly.

Loading next visibility...
Identifier
23373, 1989-061AV
Orbit
Active
Country
Flag of USUS
Related business
Manufacturer
Unknown
Mission
Spacecraft
Bus & Motor
Unknown
Mass
Unknown
Launch date (UTC)
1989-08-08 (37 years ago)
Launch vehicle
Unknown
Launch site
Air Force Eastern Test Range (AFETR)
Object type
Payload
Rocket body
Debris
Shape & HBR
Unknown shape, 0.1 m
Radar Cross Section
Medium (>0.1 m² and <1 m²)

Expand to show TLE details & history
Last TLE update: 4 weeks ago

TLE from 4 weeks ago
0 USA 40 R/B DEB
1 23373U 89061AV  26147.00650729  .00005579  00000-0  67025-2 0  9999
2 23373  57.0008 272.3298 3014615 207.2858 133.1448  8.74685092229618
Epoch: 2026-05-27T00:09Z
TLE epoch observation values (Epoch: 2026-05-27T00:09:22.229Z)
Latitude
0.00001°
Longitude
25.4154°
Altitude
5,982.012 km
Speed
4.945 km/s
True Right ascension
18h 09m 19s
True Declination
0° 00' 00"
Sunlit
Object was in daylight at epoch
Visualization orbit readout
Latitude
Unknown
Longitude
Unknown
Altitude
Unknown
Speed
Unknown
Apparent Right ascension
Unknown
Apparent Declination
Unknown
Sunlit
N/A
Visualization observer readout
Local Sidereal Time
00:51:00
Azimuth
Unknown
Elevation
Unknown
Doppler factor
Unknown
Orbital elements
Apogee altitude
6,571.373 km
Perigee altitude
572.304 km
Semi-major axis
9,949.976 km
Eccentricity
0.30146
Inclination
57.0008°
RAAN
272.3298°
Arg. of periapsis
207.2858°
True anomaly
152.78702°
Mean anomaly
133.1448°
Eccentric anomaly
143.43468°
Mean motion
2.18681 °/min
Orbital period
164.62 mins
BSTAR
0.0067025
Loading maneuver chart data...
Computing Atmospheric mass density...
Loading historical data...
Loading historical data...
Loading historical data...
Loading historical data...
Loading historical data...
Loading historical data...
Loading historical data...

Documentation

Showing up to 5 results
|